This is the latest recevied weather packets stored in our database for station/object SP9WPN-12. If no packets are shown the sender has not sent any weather packets the latest 10 day(s).
| Time | Temp. | Humidity | Pressure | Rain* | Wind** | Luminosity | Snow |
|---|---|---|---|---|---|---|---|
| 1777695941 | 5° C | 100% | 1027.7 hPa | - | - | - | - |
| 1777695340 | 4.44° C | 100% | 1027.7 hPa | - | - | - | - |
| 1777694741 | 4.44° C | 100% | 1027.6 hPa | - | - | - | - |
| 1777694143 | 3.89° C | 100% | 1027.6 hPa | - | - | - | - |
| 1777693545 | 3.89° C | 100% | 1027.6 hPa | - | - | - | - |
| 1777692947 | 3.89° C | 100% | 1027.6 hPa | - | - | - | - |
| 1777692349 | 3.89° C | 100% | 1027.6 hPa | - | - | - | - |
| 1777691751 | 3.33° C | 99% | 1027.7 hPa | - | - | - | - |
| 1777691153 | 3.89° C | 100% | 1027.6 hPa | - | - | - | - |
| 1777690554 | 3.89° C | 98% | 1027.6 hPa | - | - | - | - |
| 1777689956 | 3.89° C | 99% | 1027.6 hPa | - | - | - | - |
| 1777689358 | 4.44° C | 99% | 1027.5 hPa | - | - | - | - |
| 1777688760 | 4.44° C | 96% | 1027.4 hPa | - | - | - | - |
| 1777688162 | 3.89° C | 96% | 1027.4 hPa | - | - | - | - |
| 1777687565 | 3.89° C | 93% | 1027.4 hPa | - | - | - | - |
| 1777686967 | 3.89° C | 95% | 1027.4 hPa | - | - | - | - |
| 1777686369 | 4.44° C | 94% | 1027.3 hPa | - | - | - | - |
| 1777685770 | 3.89° C | 93% | 1027.5 hPa | - | - | - | - |
| 1777685172 | 4.44° C | 95% | 1027.5 hPa | - | - | - | - |
| 1777684575 | 4.44° C | 93% | 1027.5 hPa | - | - | - | - |
| 1777683977 | 5° C | 92% | 1027.4 hPa | - | - | - | - |
| 1777683380 | 4.44° C | 93% | 1027.4 hPa | - | - | - | - |
| 1777682783 | 5° C | 93% | 1027.4 hPa | - | - | - | - |
| 1777682186 | 5° C | 91% | 1027.4 hPa | - | - | - | - |
| 1777681584 | 5° C | 91% | 1027.5 hPa | - | - | - | - |
* Rain since midnight (hover to see other rain measurements)
** Current wind speed in m/s (hover to see current wind gust speed)